USA 193 DEB 1 32510U 06057L 08133.86596122 .00991743 98316-5 14218-2 0 1729 2 32510 58.5410 48.7577 0119722 151.3744 209.5569 15.92452325 12581 USA 193 DEB 1 32512U 06057N 08134.21905475 .00394246 50690-4 11062-2 0 1367 2 32512 58.5441 58.2363 0253351 146.6342 215.1014 15.56860068 12455 USA 193 DEB 1 32524U 06057AA 08134.19205518 .01107014 35444-3 31473-2 0 1833 2 32524 58.7935 73.0452 0276647 138.3436 223.9142 15.51805830 12255 USA 193 DEB 1 32532U 06057AJ 08134.16676810 .02560575 83947-5 49596-2 0 1874 2 32532 58.4090 125.9675 0474219 99.1788 266.3718 15.13561099 11114 USA 193 DEB 1 32542U 06057AU 08123.94134340 .03884653 10061-4 18674-2 0 1535 2 32542 58.8786 94.3712 0111787 101.8751 259.5310 16.07485835 10939 USA 193 DEB 1 32543U 06057AV 08133.82567815 .00501159 70955-4 16374-2 0 1516 2 32543 58.6508 62.9190 0296768 142.9332 219.2494 15.45526263 12340 USA 193 DEB 1 32578U 06057AZ 08116.35740531 .06994102 11202-4 13578-3 0 1065 2 32578 58.3906 91.9253 0004515 162.4380 215.1383 16.47070380 9992 USA 193 DEB 1 32593U 06057BQ 08127.20550511 .17351398 10304-4 40600-2 0 1417 2 32593 58.4471 83.9045 0039922 124.4526 238.5933 16.26663152 10711 USA 193 DEB 1 32601U 06057BY 08134.14877665 .00307082 29243-4 12907-2 0 1302 2 32601 58.5190 64.8655 0349908 141.9857 220.6477 15.30491325 11388 USA 193 DEB 1 32602U 06057BZ 08133.86843323 .00596817 12130-3 14460-2 0 1493 2 32602 57.1927 43.1786 0192586 176.9999 183.2731 15.71226112 11483 USA 193 DEB 1 32604U 06057CB 08133.37122022 .00448536 67208-4 12013-2 0 1401 2 32604 58.4849 57.0829 0218736 145.5104 216.0209 15.64586323 11682 USA 193 DEB 1 32608U 06057CF 08124.21741789 .04459223 11033-4 21812-3 0 1070 2 32608 58.5190 60.3930 0008808 116.6123 244.3567 16.42270105 11230 USA 193 DEB 1 32626U 06057CZ 08121.85232634 .08636120 11240-4 65868-4 0 954 2 32626 58.3697 66.4021 0010190 214.8209 152.1118 16.52096119 9834 USA 193 DEB 1 32646U 06057DV 08134.08121859 .00411047 52280-4 11270-2 0 1172 2 32646 57.4460 44.5513 0286167 149.9449 211.8415 15.50323782 11315 USA 193 DEB 1 32650U 06057DZ 08133.17490716 .00177970 10300-4 18573-3 0 946 2 32650 58.2124 21.5962 0064657 128.7166 231.9721 16.05662306 11400 USA 193 DEB 1 32651U 06057EA 08128.09320059 .03758093 10528-4 88498-3 0 1225 2 32651 58.6583 57.3604 0038957 134.1489 231.4717 16.26724626 11213 USA 193 DEB 1 32657U 06057EG 08133.67406165 .00090078 10706-4 40751-3 0 994 2 32657 57.6823 50.8579 0341772 153.3678 208.5532 15.31390604 11680 USA 193 DEB 1 32660U 06057EK 08114.24861185 .10017497 10416-4 31567-2 0 1030 2 32660 57.6616 120.6870 0060776 125.6317 236.6324 16.20725828 8820 USA 193 DEB 1 32675U 06057FA 08128.41217513 .03741151 11035-4 19648-3 0 970 2 32675 58.4979 42.0080 0011981 99.2178 263.8489 16.41524506 10697 USA 193 DEB 1 32679U 06057FE 08108.15179849 .06393662 10545-4 24258-2 0 826 2 32679 57.9466 156.7719 0079846 106.3561 255.8405 16.15723370 7807 USA 193 DEB 1 32685U 06057FL 08134.01276736 .00485531 10257-4 57881-3 0 1113 2 32685 57.6374 26.5705 0106473 187.8287 172.1461 15.97333627 12073